Regional Weather Roundup
Issued by NWS

Home | Current Version | Previous Version | Graphics & Text | Print | Product List | Glossary On
Versions: 1 2 3 4 5 6 7 8 9 10 11 12 13 14 15 16 17 18 19 20 21 22 23 24 25 26 27 28 29 30 31 32 33 34 35 36 37 38 39 40 41 42 43 44 45 46 47 48 49 50
193
ASUS43 KMKX 300700
RWRWI

WISCONSIN REGIONAL WEATHER ROUNDUP
NATIONAL WEATHER SERVICE MILWAUKEE/SULLIVAN WI
200 AM CDT MON MAY 30 2016

NOTE: "FAIR" INDICATES FEW OR NO CLOUDS BELOW 12,000 FEET WITH NO
SIGNIFICANT WEATHER AND/OR OBSTRUCTIONS TO VISIBILITY.

WIZ001-002-006>008-014>016-023>028-300800-
NORTHWEST WISCONSIN

CITY           SKY/WX    TMP DP  RH WIND       PRES   REMARKS
SUPERIOR ARPT  CLEAR     50  50  99 SW3       29.94S
ASHLAND        PTCLDY    55  51  86 SW7       29.94R
HAYWARD        PTCLDY    49  47  93 CALM      29.97S FOG
SIREN          CLEAR     53  52  94 CALM      29.98S
CUMBERLAND     CLEAR     55  54  94 CALM      29.99S
RICE LAKE      PTCLDY    58  56  94 CALM      30.00S
CHETEK         MOCLDY    57  57 100 CALM      29.99S
LADYSMITH      PTCLDY    56  54  94 CALM      29.99F
EAU CLAIRE     NOT AVBL
MENOMONIE      CLEAR     57  54  87 W3        29.99S
NEW RICHMOND   CLEAR     57  57  99 CALM      30.00S
OSCEOLA        CLEAR     55  55 100 CALM      30.02S
$$

WIZ003>005-009-010-017-018-300800-
NORTH CENTRAL WISCONSIN

CITY           SKY/WX    TMP DP  RH WIND       PRES   REMARKS
MANITOWISH WTR NOT AVBL
ARBOR VITAE    CLEAR     53  51  94 CALM      29.96S
WOODRUFF       CLEAR     53  51  94 CALM      29.96S
RHINELANDER    CLEAR     53  52  96 W5        29.97S FOG
EAGLE RIVER      N/A     49  49 100 CALM      29.96R FOG
LAND O LAKES   CLEAR     53  53 100 W3        29.96S
PHILLIPS       CLEAR     50  50 100 CALM      29.97S FOG
TOMAHAWK       CLEAR     48  47  96 CALM      29.98S
MEDFORD        CLEAR     58  56  94 CALM      29.98S
MERRILL        FOG       52  52 100 CALM      29.98S VSB 1
$$

WIZ029-030-035-036-043>047-300800-
CENTRAL WISCONSIN

CITY           SKY/WX    TMP DP  RH WIND       PRES   REMARKS
WAUSAU         PTCLDY    62  57  83 NW5       29.96S
MOSINEE        PTCLDY    59  55  88 W6        29.99S
MARSHFIELD     MOCLDY    59  55  87 CALM      29.98S
STEVENS POINT  RAIN      61  56  83 W10       29.99R
WAUPACA        CLEAR     59  58  94 CALM      29.97S
WAUTOMA        CLOUDY   N/A N/A N/A CALM      29.99S
WISC RAPIDS    CLOUDY    62  56  80 N9        30.00R
CAMP DOUGLAS   NOT AVBL
$$

WIZ011>013-019>022-031-037>040-048>050-300800-
NORTHEAST WISCONSIN

CITY           SKY/WX    TMP DP  RH WIND       PRES   REMARKS
ANTIGO         CLEAR     55  54  95 CALM      29.98S
SHAWANO        PTCLDY    60  57  88 CALM      29.96R
OCONTO         PTCLDY   N/A N/A N/A CALM      29.94S
STURGEON BAY   NOT AVBL
GREEN BAY      CLEAR     61  57  87 W3        29.95S
MANITOWOC      NOT AVBL
APPLETON       CLEAR     61  54  77 SW7       29.96S
CLINTONVILLE   CLEAR     59  55  88 W3        29.96S
OSHKOSH        CLEAR     64  58  80 VRB5      29.97S
$$

WIZ032>034-041-042-053>061-300800-
SOUTHWEST WISCONSIN

CITY           SKY/WX    TMP DP  RH WIND       PRES   REMARKS
LA CROSSE      PTCLDY    63  60  90 S5        29.98F
SPARTA         MOCLDY    56  55  97 CALM      30.00S
VIROQUA        CLEAR     62  57  82 W6        30.01F
BOSCOBEL       FOG       57  56  96 CALM      30.00F VSB 1/4
PRAIRIE DU CHI CLEAR     60  57  90 CALM      30.00F
PLATTEVILLE    PTCLDY    65  60  83 CALM      30.02S
$$

WIZ056-057-062-063-064-067-068-300800-
SOUTH CENTRAL WISCONSIN

CITY           SKY/WX    TMP DP  RH WIND       PRES   REMARKS
REEDSBURG      CLOUDY    60  60  99 CALM      29.99F
BARABOO/DELLS  PTCLDY    60  57  89 CALM      30.00S
LONE ROCK      FOG       59  58  96 CALM      30.00F VSB 3/4
MINERAL POINT  PTCLDY    66  59  77 CALM      30.01F
MADISON        CLEAR     62  59  90 CALM      29.99S
MIDDLETON      CLEAR     61  59  93 CALM      30.01S
WATERTOWN      CLEAR     59  58  99 CALM      29.99S
MONROE         CLEAR     64  55  72 W9        30.01F
JANESVILLE     CLEAR     63  59  88 CALM      30.00S
$$

WIZ051-052-058>065-066-070>072-300800-
SOUTHEAST WISCONSIN

CITY           SKY/WX    TMP DP  RH WIND       PRES   REMARKS
MILWAUKEE      PTCLDY    68  57  68 W5        29.98S
WAUKESHA       CLEAR     63  54  72 W5        30.00S
MILWAUKEE/TIMM PTCLDY    63  54  72 W3        29.99S
RACINE         CLOUDY    68  58  70 W6        30.00S
BURLINGTON     CLEAR     59  58  97 CALM      30.00S
KENOSHA        PTCLDY    65  58  78 W7        29.99S
FOND DU LAC    CLEAR     62  59  90 SW6       29.98S
SHEBOYGAN      CLEAR     59  56  89 SW5       29.97S
WEST BEND      CLEAR     63  55  77 W3        29.99S
JUNEAU         CLEAR     58  56  92 SW5       30.01R
$$

LSZ147-162-300800-
LAKE SUPERIOR

STATION/POSITION TIME  TEMP    WIND        PRES    WAVE
                       AIR SEA DIR/SP/G            HT/PER
                 (UTC) (F)     (DEG/KT/KT) (MB)    (FT/S)
W MID LAKE BUOY  0550   44 38  240/ 10/ 12 1012.2R   1/ 3
DEVILS ISLAND    0600   53     280/ 11/ 12 1012.7R
SAXON HARBOR     0600   54     200/  7/  8 1012.5
$$

LMZ867-665-643>646-300800-
LAKE MICHIGAN

STATION/POSITION TIME  TEMP    WIND        PRES    WAVE
                       AIR SEA DIR/SP/G            HT/PER
                 (UTC) (F)     (DEG/KT/KT) (MB)    (FT/S)
CHAMBERS ISLAND  0600   64     230/  5/ 10 1013.5R
N MID LAKE BUOY  0550   53 47  230/ 10/ 10 1012.6R   2/ 4
NORTHPORT PIER   0640   63     270/  4/ 10 1013.2R
KEWAUNEE LAKESHO 0600   63     300/  4/  5 1013.6R
SHEBOYGAN LAKESH 0600   67     260/  7/  8 1014.9R
PORT WASHINGTON  0600   67     290/  4/  6 1015.6R
S MID LAKE BUOY  0550   56 51  230/  8/  8 1014.8R   1
KENOSHA   LAKESH 0600   71     260/  8/ 12 1014.9S
$$

TC  - TEMPERATURE IN CELSIUS
VSB - VISIBILITY IN STATUTE MILES
WCI - WIND CHILL INDEX
HX  - HEAT INDEX





USA.gov is the U.S. government's official web portal to all federal, state and local government web resources and services.